contact:dominique.lefevre@mio.osupytheas.fr, maurice.libes@osupytheas.fr, didier.mallarino@osupytheas.fr
Project:EMSO http://www.emso-fr.org/EMSO-France
Depth: 2436.0 m
Title:EMSO Ligure Ouest : Data MII capteur MICROCAT
DateTime_Computer,Latitude,Longitude,Temperature,Conductivity,Pressure,DateTime_Instrument
DateTime_Computer,Latitude,Longitude,degC,S m-1,dbar,DateTime_Instrument
2019-05-27T00:00:36Z,42.805,6.029,13.2956,4.59955,2469.657,2019-5-27T02:00:51Z
2019-05-27T00:03:39Z,42.805,6.029,13.2953,4.59952,2469.643,2019-5-27T02:03:54Z
2019-05-27T00:06:42Z,42.805,6.029,13.2949,4.59955,2469.657,2019-5-27T02:06:57Z
2019-05-27T00:09:45Z,42.805,6.029,13.2955,4.59953,2469.657,2019-5-27T02:10:00Z
2019-05-27T00:12:48Z,42.805,6.029,13.2952,4.59955,2469.657,2019-5-27T02:13:03Z
2019-05-27T00:15:51Z,42.805,6.029,13.2952,4.59954,2469.643,2019-5-27T02:16:06Z
2019-05-27T00:18:54Z,42.805,6.029,13.2951,4.59951,2469.629,2019-5-27T02:19:09Z
2019-05-27T00:21:57Z,42.805,6.029,13.2946,4.59952,2469.68,2019-5-27T02:22:11Z
2019-05-27T00:25:00Z,42.805,6.029,13.2954,4.59952,2469.667,2019-5-27T02:25:14Z
2019-05-27T00:28:03Z,42.805,6.029,13.2952,4.59952,2469.62,2019-5-27T02:28:17Z
2019-05-27T00:31:06Z,42.805,6.029,13.2950,4.59951,2469.643,2019-5-27T02:31:20Z
2019-05-27T00:34:09Z,42.805,6.029,13.2951,4.59954,2469.643,2019-5-27T02:34:23Z
2019-05-27T00:37:12Z,42.805,6.029,13.2952,4.59952,2469.68,2019-5-27T02:37:26Z
2019-05-27T00:40:14Z,42.805,6.029,13.2955,4.59951,2469.667,2019-5-27T02:40:29Z
2019-05-27T00:43:17Z,42.805,6.029,13.2954,4.59952,2469.643,2019-5-27T02:43:32Z
2019-05-27T00:46:20Z,42.805,6.029,13.2951,4.59951,2469.643,2019-5-27T02:46:35Z
2019-05-27T00:49:23Z,42.805,6.029,13.2952,4.59954,2469.643,2019-5-27T02:49:38Z
2019-05-27T00:52:26Z,42.805,6.029,13.2952,4.59953,2469.68,2019-5-27T02:52:41Z
2019-05-27T00:55:29Z,42.805,6.029,13.2954,4.59952,2469.657,2019-5-27T02:55:44Z
2019-05-27T00:58:32Z,42.805,6.029,13.2951,4.59954,2469.643,2019-5-27T02:58:47Z
2019-05-27T01:01:35Z,42.805,6.029,13.2952,4.59952,2469.657,2019-5-27T03:01:50Z
2019-05-27T01:04:38Z,42.805,6.029,13.2953,4.59952,2469.657,2019-5-27T03:04:53Z
2019-05-27T01:07:41Z,42.805,6.029,13.2952,4.59953,2469.68,2019-5-27T03:07:56Z
2019-05-27T01:10:44Z,42.805,6.029,13.2954,4.59952,2469.727,2019-5-27T03:10:59Z
2019-05-27T01:13:47Z,42.805,6.029,13.2952,4.59951,2469.643,2019-5-27T03:14:02Z
2019-05-27T01:16:50Z,42.805,6.029,13.2949,4.59952,2469.667,2019-5-27T03:17:05Z
2019-05-27T01:19:53Z,42.805,6.029,13.2954,4.59953,2469.667,2019-5-27T03:20:07Z
2019-05-27T01:22:56Z,42.805,6.029,13.2956,4.59954,2469.62,2019-5-27T03:23:10Z
2019-05-27T01:25:59Z,42.805,6.029,13.2955,4.59951,2469.643,2019-5-27T03:26:13Z
2019-05-27T01:29:02Z,42.805,6.029,13.2955,4.59951,2469.68,2019-5-27T03:29:16Z
2019-05-27T01:32:05Z,42.805,6.029,13.2953,4.59956,2469.643,2019-5-27T03:32:19Z
2019-05-27T01:35:08Z,42.805,6.029,13.2955,4.59951,2469.667,2019-5-27T03:35:22Z
2019-05-27T01:38:11Z,42.805,6.029,13.2953,4.59952,2469.667,2019-5-27T03:38:25Z
2019-05-27T01:41:13Z,42.805,6.029,13.2952,4.59953,2469.634,2019-5-27T03:41:28Z
2019-05-27T01:44:16Z,42.805,6.029,13.2954,4.59953,2469.62,2019-5-27T03:44:31Z
2019-05-27T01:47:19Z,42.805,6.029,13.2949,4.59951,2469.643,2019-5-27T03:47:34Z
2019-05-27T01:50:22Z,42.805,6.029,13.2951,4.59953,2469.657,2019-5-27T03:50:37Z
2019-05-27T01:53:25Z,42.805,6.029,13.2949,4.59954,2469.68,2019-5-27T03:53:40Z
2019-05-27T01:56:28Z,42.805,6.029,13.2953,4.59951,2469.657,2019-5-27T03:56:43Z
2019-05-27T01:59:31Z,42.805,6.029,13.2953,4.59955,2469.643,2019-5-27T03:59:46Z
2019-05-27T02:02:34Z,42.805,6.029,13.2952,4.59952,2469.634,2019-5-27T04:02:49Z
2019-05-27T02:05:37Z,42.805,6.029,13.2953,4.59954,2469.643,2019-5-27T04:05:52Z
2019-05-27T02:08:40Z,42.805,6.029,13.2952,4.59953,2469.694,2019-5-27T04:08:55Z
2019-05-27T02:11:43Z,42.805,6.029,13.2953,4.59956,2469.643,2019-5-27T04:11:58Z
2019-05-27T02:14:46Z,42.805,6.029,13.2952,4.59953,2469.657,2019-5-27T04:15:01Z
2019-05-27T02:17:49Z,42.805,6.029,13.2952,4.59953,2469.68,2019-5-27T04:18:04Z
2019-05-27T02:20:52Z,42.805,6.029,13.2949,4.59954,2469.643,2019-5-27T04:21:06Z
2019-05-27T02:23:55Z,42.805,6.029,13.2951,4.59955,2469.667,2019-5-27T04:24:09Z
2019-05-27T02:26:58Z,42.805,6.029,13.2952,4.59954,2469.62,2019-5-27T04:27:12Z
2019-05-27T02:30:01Z,42.805,6.029,13.2954,4.59956,2469.643,2019-5-27T04:30:15Z
2019-05-27T02:33:04Z,42.805,6.029,13.2950,4.59954,2469.667,2019-5-27T04:33:18Z
2019-05-27T02:36:07Z,42.805,6.029,13.2952,4.59954,2469.657,2019-5-27T04:36:21Z
2019-05-27T02:39:09Z,42.805,6.029,13.2954,4.59952,2469.657,2019-5-27T04:39:24Z
2019-05-27T02:42:12Z,42.805,6.029,13.2957,4.59952,2469.69,2019-5-27T04:42:27Z
2019-05-27T02:45:15Z,42.805,6.029,13.2953,4.59951,2469.657,2019-5-27T04:45:30Z
2019-05-27T02:48:18Z,42.805,6.029,13.2953,4.59951,2469.634,2019-5-27T04:48:33Z
2019-05-27T02:51:21Z,42.805,6.029,13.2957,4.59951,2469.597,2019-5-27T04:51:36Z
2019-05-27T02:54:24Z,42.805,6.029,13.2953,4.59951,2469.634,2019-5-27T04:54:39Z
2019-05-27T02:57:27Z,42.805,6.029,13.2956,4.59954,2469.634,2019-5-27T04:57:42Z
2019-05-27T03:00:30Z,42.805,6.029,13.2951,4.59952,2469.68,2019-5-27T05:00:45Z
2019-05-27T03:03:33Z,42.805,6.029,13.2951,4.59955,2469.643,2019-5-27T05:03:48Z
2019-05-27T03:06:36Z,42.805,6.029,13.2951,4.59951,2469.643,2019-5-27T05:06:51Z
2019-05-27T03:09:39Z,42.805,6.029,13.2952,4.59951,2469.61,2019-5-27T05:09:54Z
2019-05-27T03:12:42Z,42.805,6.029,13.2953,4.59952,2469.62,2019-5-27T05:12:57Z
2019-05-27T03:15:45Z,42.805,6.029,13.2954,4.59951,2469.643,2019-5-27T05:16:00Z
2019-05-27T03:18:48Z,42.805,6.029,13.2955,4.59954,2469.657,2019-5-27T05:19:02Z
2019-05-27T03:21:51Z,42.805,6.029,13.2953,4.59951,2469.634,2019-5-27T05:22:05Z
2019-05-27T03:24:54Z,42.805,6.029,13.2951,4.59952,2469.643,2019-5-27T05:25:08Z
2019-05-27T03:27:57Z,42.805,6.029,13.2952,4.59951,2469.657,2019-5-27T05:28:11Z
2019-05-27T03:31:00Z,42.805,6.029,13.2953,4.59954,2469.62,2019-5-27T05:31:14Z
2019-05-27T03:34:03Z,42.805,6.029,13.2950,4.59953,2469.643,2019-5-27T05:34:17Z
2019-05-27T03:37:06Z,42.805,6.029,13.2953,4.59953,2469.634,2019-5-27T05:37:20Z
2019-05-27T03:40:08Z,42.805,6.029,13.2956,4.59953,2469.657,2019-5-27T05:40:23Z
2019-05-27T03:43:11Z,42.805,6.029,13.2954,4.59957,2469.634,2019-5-27T05:43:26Z
2019-05-27T03:46:14Z,42.805,6.029,13.2955,4.59954,2469.643,2019-5-27T05:46:29Z
2019-05-27T03:49:17Z,42.805,6.029,13.2950,4.59953,2469.62,2019-5-27T05:49:32Z
2019-05-27T03:52:20Z,42.805,6.029,13.2953,4.59953,2469.643,2019-5-27T05:52:35Z
2019-05-27T03:55:23Z,42.805,6.029,13.2952,4.59958,2469.643,2019-5-27T05:55:38Z
2019-05-27T03:58:26Z,42.805,6.029,13.2956,4.59954,2469.634,2019-5-27T05:58:41Z
2019-05-27T04:01:29Z,42.805,6.029,13.2952,4.59952,2469.634,2019-5-27T06:01:44Z
2019-05-27T04:04:32Z,42.805,6.029,13.2953,4.59954,2469.61,2019-5-27T06:04:47Z
2019-05-27T04:07:35Z,42.805,6.029,13.2951,4.59955,2469.62,2019-5-27T06:07:50Z
2019-05-27T04:10:38Z,42.805,6.029,13.2954,4.59953,2469.667,2019-5-27T06:10:53Z
2019-05-27T04:13:41Z,42.805,6.029,13.2952,4.59955,2469.597,2019-5-27T06:13:56Z
2019-05-27T04:16:44Z,42.805,6.029,13.2956,4.59955,2469.634,2019-5-27T06:16:59Z
2019-05-27T04:19:47Z,42.805,6.029,13.2953,4.59956,2469.68,2019-5-27T06:20:01Z
2019-05-27T04:22:50Z,42.805,6.029,13.2953,4.59953,2469.62,2019-5-27T06:23:04Z
2019-05-27T04:25:53Z,42.805,6.029,13.2950,4.59952,2469.657,2019-5-27T06:26:07Z
2019-05-27T04:28:56Z,42.805,6.029,13.2948,4.59951,2469.597,2019-5-27T06:29:10Z
2019-05-27T04:31:59Z,42.805,6.029,13.2948,4.59954,2469.657,2019-5-27T06:32:13Z
2019-05-27T04:35:02Z,42.805,6.029,13.2953,4.59952,2469.62,2019-5-27T06:35:16Z
2019-05-27T04:38:05Z,42.805,6.029,13.2955,4.59955,2469.62,2019-5-27T06:38:19Z
2019-05-27T04:41:07Z,42.805,6.029,13.2953,4.59952,2469.643,2019-5-27T06:41:22Z
2019-05-27T04:44:10Z,42.805,6.029,13.2951,4.59955,2469.61,2019-5-27T06:44:25Z
2019-05-27T04:47:13Z,42.805,6.029,13.2953,4.59955,2469.62,2019-5-27T06:47:28Z
2019-05-27T04:50:16Z,42.805,6.029,13.2951,4.59953,2469.587,2019-5-27T06:50:31Z
2019-05-27T04:53:19Z,42.805,6.029,13.2953,4.59954,2469.62,2019-5-27T06:53:34Z
2019-05-27T04:56:22Z,42.805,6.029,13.2953,4.59956,2469.634,2019-5-27T06:56:37Z
2019-05-27T04:59:25Z,42.805,6.029,13.2951,4.59952,2469.657,2019-5-27T06:59:40Z
2019-05-27T05:02:28Z,42.805,6.029,13.2957,4.59960,2469.634,2019-5-27T07:02:43Z
2019-05-27T05:05:31Z,42.805,6.029,13.2954,4.59953,2469.61,2019-5-27T07:05:46Z
2019-05-27T05:08:34Z,42.805,6.029,13.2953,4.59956,2469.61,2019-5-27T07:08:49Z
2019-05-27T05:11:37Z,42.805,6.029,13.2949,4.59954,2469.597,2019-5-27T07:11:52Z
2019-05-27T05:14:40Z,42.805,6.029,13.2950,4.59953,2469.597,2019-5-27T07:14:55Z
2019-05-27T05:17:43Z,42.805,6.029,13.2953,4.59957,2469.634,2019-5-27T07:17:58Z
2019-05-27T05:20:46Z,42.805,6.029,13.2953,4.59954,2469.62,2019-5-27T07:21:00Z
2019-05-27T05:23:49Z,42.805,6.029,13.2952,4.59954,2469.61,2019-5-27T07:24:03Z
2019-05-27T05:26:52Z,42.805,6.029,13.2953,4.59955,2469.634,2019-5-27T07:27:06Z
2019-05-27T05:29:55Z,42.805,6.029,13.2956,4.59954,2469.573,2019-5-27T07:30:09Z
2019-05-27T05:32:58Z,42.805,6.029,13.2953,4.59954,2469.634,2019-5-27T07:33:12Z
2019-05-27T05:36:01Z,42.805,6.029,13.2953,4.59954,2469.597,2019-5-27T07:36:15Z
2019-05-27T05:39:03Z,42.805,6.029,13.2953,4.59952,2469.587,2019-5-27T07:39:18Z
2019-05-27T05:42:06Z,42.805,6.029,13.2951,4.59956,2469.61,2019-5-27T07:42:21Z
2019-05-27T05:45:09Z,42.805,6.029,13.2949,4.59952,2469.61,2019-5-27T07:45:24Z
2019-05-27T05:48:12Z,42.805,6.029,13.2953,4.59964,2469.634,2019-5-27T07:48:27Z
2019-05-27T05:51:15Z,42.805,6.029,13.2956,4.59954,2469.62,2019-5-27T07:51:30Z
2019-05-27T05:54:18Z,42.805,6.029,13.2953,4.59956,2469.61,2019-5-27T07:54:33Z
2019-05-27T05:57:21Z,42.805,6.029,13.2951,4.59954,2469.61,2019-5-27T07:57:36Z
2019-05-27T06:00:24Z,42.805,6.029,13.2952,4.59951,2469.597,2019-5-27T08:00:39Z
2019-05-27T06:03:27Z,42.805,6.029,13.2953,4.59955,2469.61,2019-5-27T08:03:42Z
2019-05-27T06:06:30Z,42.805,6.029,13.2953,4.59954,2469.597,2019-5-27T08:06:45Z
2019-05-27T06:09:33Z,42.805,6.029,13.2957,4.59952,2469.573,2019-5-27T08:09:48Z
2019-05-27T06:12:36Z,42.805,6.029,13.2955,4.59953,2469.573,2019-5-27T08:12:51Z
2019-05-27T06:15:39Z,42.805,6.029,13.2954,4.59953,2469.587,2019-5-27T08:15:54Z
2019-05-27T06:18:42Z,42.805,6.029,13.2953,4.59959,2469.573,2019-5-27T08:18:56Z
2019-05-27T06:21:45Z,42.805,6.029,13.2948,4.59953,2469.587,2019-5-27T08:21:59Z
2019-05-27T06:24:48Z,42.805,6.029,13.2949,4.59951,2469.597,2019-5-27T08:25:02Z
2019-05-27T06:27:51Z,42.805,6.029,13.2953,4.59954,2469.61,2019-5-27T08:28:05Z
2019-05-27T06:30:54Z,42.805,6.029,13.2952,4.59953,2469.573,2019-5-27T08:31:08Z
2019-05-27T06:33:57Z,42.805,6.029,13.2951,4.59953,2469.61,2019-5-27T08:34:11Z
2019-05-27T06:36:59Z,42.805,6.029,13.2953,4.59953,2469.563,2019-5-27T08:37:14Z
2019-05-27T06:40:02Z,42.805,6.029,13.2954,4.59953,2469.55,2019-5-27T08:40:17Z
2019-05-27T06:43:05Z,42.805,6.029,13.2952,4.59956,2469.587,2019-5-27T08:43:20Z
2019-05-27T06:46:08Z,42.805,6.029,13.2952,4.59958,2469.573,2019-5-27T08:46:23Z
2019-05-27T06:49:11Z,42.805,6.029,13.2955,4.59952,2469.587,2019-5-27T08:49:26Z
2019-05-27T06:52:14Z,42.805,6.029,13.2952,4.59951,2469.573,2019-5-27T08:52:29Z
2019-05-27T06:55:17Z,42.805,6.029,13.2957,4.59953,2469.587,2019-5-27T08:55:32Z
2019-05-27T06:58:20Z,42.805,6.029,13.2955,4.59957,2469.55,2019-5-27T08:58:35Z
2019-05-27T07:01:23Z,42.805,6.029,13.2954,4.59954,2469.55,2019-5-27T09:01:38Z
2019-05-27T07:04:26Z,42.805,6.029,13.2953,4.59955,2469.563,2019-5-27T09:04:41Z
2019-05-27T07:07:29Z,42.805,6.029,13.2953,4.59955,2469.573,2019-5-27T09:07:44Z
2019-05-27T07:10:32Z,42.805,6.029,13.2954,4.59953,2469.597,2019-5-27T09:10:47Z
2019-05-27T07:13:35Z,42.805,6.029,13.2953,4.59952,2469.587,2019-5-27T09:13:50Z
2019-05-27T07:16:38Z,42.805,6.029,13.2955,4.59955,2469.573,2019-5-27T09:16:53Z
2019-05-27T07:19:41Z,42.805,6.029,13.2951,4.59956,2469.55,2019-5-27T09:19:55Z
2019-05-27T07:22:44Z,42.805,6.029,13.2952,4.59954,2469.573,2019-5-27T09:22:58Z
2019-05-27T07:25:47Z,42.805,6.029,13.2952,4.59952,2469.573,2019-5-27T09:26:01Z
2019-05-27T07:28:50Z,42.805,6.029,13.2951,4.59971,2469.563,2019-5-27T09:29:04Z
2019-05-27T09:03:08Z,42.805,6.029,13.2952,4.59956,2469.55,2019-5-27T11:03:23Z
2019-05-27T09:06:11Z,42.805,6.029,13.2952,4.59955,2469.526,2019-5-27T11:06:26Z
2019-05-27T09:09:14Z,42.805,6.029,13.2950,4.59956,2469.54,2019-5-27T11:09:29Z
2019-05-27T09:12:17Z,42.805,6.029,13.2950,4.59957,2469.526,2019-5-27T11:12:32Z
2019-05-27T09:15:20Z,42.805,6.029,13.2952,4.59956,2469.526,2019-5-27T11:15:35Z
2019-05-27T09:18:23Z,42.805,6.029,13.2948,4.59956,2469.503,2019-5-27T11:18:37Z
2019-05-27T09:21:26Z,42.805,6.029,13.2953,4.59954,2469.526,2019-5-27T11:21:40Z
2019-05-27T09:24:29Z,42.805,6.029,13.2955,4.59959,2469.54,2019-5-27T11:24:43Z
2019-05-27T09:27:32Z,42.805,6.029,13.2948,4.59958,2469.563,2019-5-27T11:27:46Z
2019-05-27T09:30:35Z,42.805,6.029,13.2957,4.59956,2469.563,2019-5-27T11:30:49Z
2019-05-27T09:33:38Z,42.805,6.029,13.2950,4.59956,2469.48,2019-5-27T11:33:52Z
2019-05-27T09:36:41Z,42.805,6.029,13.2953,4.59956,2469.54,2019-5-27T11:36:55Z
2019-05-27T09:39:43Z,42.805,6.029,13.2955,4.59960,2469.54,2019-5-27T11:39:58Z
2019-05-27T09:42:46Z,42.805,6.029,13.2953,4.59957,2469.55,2019-5-27T11:43:01Z
2019-05-27T09:45:49Z,42.805,6.029,13.2952,4.59956,2469.526,2019-5-27T11:46:04Z
2019-05-27T09:48:52Z,42.805,6.029,13.2953,4.59953,2469.526,2019-5-27T11:49:07Z
2019-05-27T09:51:55Z,42.805,6.029,13.2953,4.59956,2469.526,2019-5-27T11:52:10Z
2019-05-27T09:54:58Z,42.805,6.029,13.2953,4.59961,2469.54,2019-5-27T11:55:13Z
2019-05-27T09:58:01Z,42.805,6.029,13.2952,4.59956,2469.503,2019-5-27T11:58:16Z
2019-05-27T10:01:04Z,42.805,6.029,13.2955,4.59955,2469.54,2019-5-27T12:01:19Z
2019-05-27T10:04:07Z,42.805,6.029,13.2952,4.59960,2469.55,2019-5-27T12:04:22Z
2019-05-27T10:07:10Z,42.805,6.029,13.2952,4.59961,2469.54,2019-5-27T12:07:25Z
2019-05-27T10:10:13Z,42.805,6.029,13.2951,4.59958,2469.503,2019-5-27T12:10:28Z
2019-05-27T10:13:16Z,42.805,6.029,13.2955,4.59954,2469.55,2019-5-27T12:13:31Z
2019-05-27T10:16:19Z,42.805,6.029,13.2950,4.59956,2469.526,2019-5-27T12:16:34Z
2019-05-27T10:19:22Z,42.805,6.029,13.2953,4.59956,2469.503,2019-5-27T12:19:37Z
2019-05-27T10:22:25Z,42.805,6.029,13.2950,4.59959,2469.503,2019-5-27T12:22:39Z
2019-05-27T10:25:28Z,42.805,6.029,13.2953,4.59957,2469.54,2019-5-27T12:25:42Z
2019-05-27T10:28:31Z,42.805,6.029,13.2956,4.59955,2469.526,2019-5-27T12:28:45Z
2019-05-27T10:31:34Z,42.805,6.029,13.2951,4.59963,2469.526,2019-5-27T12:31:48Z
2019-05-27T10:34:37Z,42.805,6.029,13.2956,4.59959,2469.54,2019-5-27T12:34:51Z
2019-05-27T10:37:40Z,42.805,6.029,13.2951,4.59964,2469.494,2019-5-27T12:37:54Z
2019-05-27T10:40:43Z,42.805,6.029,13.2955,4.59960,2469.526,2019-5-27T12:40:57Z
2019-05-27T10:43:45Z,42.805,6.029,13.2953,4.59958,2469.526,2019-5-27T12:44:00Z
2019-05-27T10:46:48Z,42.805,6.029,13.2954,4.59959,2469.526,2019-5-27T12:47:03Z
2019-05-27T10:49:51Z,42.805,6.029,13.2952,4.59958,2469.526,2019-5-27T12:50:06Z
2019-05-27T10:52:54Z,42.805,6.029,13.2953,4.59960,2469.54,2019-5-27T12:53:09Z
2019-05-27T10:55:57Z,42.805,6.029,13.2952,4.59956,2469.573,2019-5-27T12:56:12Z
2019-05-27T10:59:00Z,42.805,6.029,13.2951,4.59954,2469.55,2019-5-27T12:59:15Z
2019-05-27T11:02:03Z,42.805,6.029,13.2954,4.59954,2469.61,2019-5-27T13:02:18Z
2019-05-27T11:05:06Z,42.805,6.029,13.2953,4.59954,2469.563,2019-5-27T13:05:21Z
2019-05-27T11:08:09Z,42.805,6.029,13.2949,4.59956,2469.54,2019-5-27T13:08:24Z
2019-05-27T11:11:12Z,42.805,6.029,13.2953,4.59955,2469.54,2019-5-27T13:11:27Z
2019-05-27T11:14:15Z,42.805,6.029,13.2956,4.59955,2469.563,2019-5-27T13:14:30Z
2019-05-27T11:17:18Z,42.805,6.029,13.2956,4.59955,2469.526,2019-5-27T13:17:33Z
2019-05-27T11:20:21Z,42.805,6.029,13.2952,4.59955,2469.54,2019-5-27T13:20:36Z
2019-05-27T11:23:24Z,42.805,6.029,13.2955,4.59954,2469.587,2019-5-27T13:23:39Z
2019-05-27T11:26:27Z,42.805,6.029,13.2953,4.59961,2469.54,2019-5-27T13:26:42Z
2019-05-27T11:29:30Z,42.805,6.029,13.2953,4.59959,2469.573,2019-5-27T13:29:44Z
2019-05-27T11:32:33Z,42.805,6.029,13.2954,4.59961,2469.587,2019-5-27T13:32:47Z
2019-05-27T11:35:36Z,42.805,6.029,13.2952,4.59963,2469.573,2019-5-27T13:35:50Z
2019-05-27T11:38:39Z,42.805,6.029,13.2950,4.59956,2469.55,2019-5-27T13:38:53Z
2019-05-27T11:41:42Z,42.805,6.029,13.2953,4.59960,2469.563,2019-5-27T13:41:56Z
2019-05-27T11:44:45Z,42.805,6.029,13.2951,4.59961,2469.526,2019-5-27T13:44:59Z
2019-05-27T11:47:48Z,42.805,6.029,13.2957,4.59964,2469.597,2019-5-27T13:48:02Z
2019-05-27T11:50:50Z,42.805,6.029,13.2954,4.59962,2469.563,2019-5-27T13:51:05Z
2019-05-27T11:53:53Z,42.805,6.029,13.2956,4.59961,2469.55,2019-5-27T13:54:08Z
2019-05-27T11:56:56Z,42.805,6.029,13.2956,4.59958,2469.587,2019-5-27T13:57:11Z
2019-05-27T11:59:59Z,42.805,6.029,13.2955,4.59961,2469.517,2019-5-27T14:00:14Z
2019-05-27T12:03:02Z,42.805,6.029,13.2956,4.59956,2469.526,2019-5-27T14:03:17Z
2019-05-27T12:06:05Z,42.805,6.029,13.2957,4.59957,2469.587,2019-5-27T14:06:20Z
2019-05-27T12:09:08Z,42.805,6.029,13.2954,4.59958,2469.55,2019-5-27T14:09:23Z
2019-05-27T12:12:11Z,42.805,6.029,13.2950,4.59958,2469.563,2019-5-27T14:12:26Z
2019-05-27T12:15:14Z,42.805,6.029,13.2952,4.59956,2469.563,2019-5-27T14:15:29Z
2019-05-27T12:18:17Z,42.805,6.029,13.2953,4.59955,2469.573,2019-5-27T14:18:32Z
2019-05-27T12:21:20Z,42.805,6.029,13.2953,4.59959,2469.634,2019-5-27T14:21:35Z
2019-05-27T12:24:23Z,42.805,6.029,13.2954,4.59956,2469.573,2019-5-27T14:24:38Z
2019-05-27T12:27:26Z,42.805,6.029,13.2958,4.59960,2469.526,2019-5-27T14:27:41Z
2019-05-27T12:30:29Z,42.805,6.029,13.2954,4.59958,2469.563,2019-5-27T14:30:44Z
2019-05-27T12:33:32Z,42.805,6.029,13.2953,4.59956,2469.61,2019-5-27T14:33:47Z
2019-05-27T12:36:35Z,42.805,6.029,13.2953,4.59957,2469.587,2019-5-27T14:36:49Z
2019-05-27T12:39:38Z,42.805,6.029,13.2952,4.59956,2469.55,2019-5-27T14:39:52Z
2019-05-27T12:42:41Z,42.805,6.029,13.2953,4.59956,2469.55,2019-5-27T14:42:55Z
2019-05-27T12:45:44Z,42.805,6.029,13.2953,4.59957,2469.61,2019-5-27T14:45:58Z
2019-05-27T12:48:47Z,42.805,6.029,13.2958,4.59956,2469.573,2019-5-27T14:49:01Z
2019-05-27T12:51:50Z,42.805,6.029,13.2957,4.59958,2469.55,2019-5-27T14:52:04Z
2019-05-27T12:54:52Z,42.805,6.029,13.2953,4.59957,2469.597,2019-5-27T14:55:07Z
2019-05-27T12:57:55Z,42.805,6.029,13.2953,4.59958,2469.597,2019-5-27T14:58:10Z
2019-05-27T13:00:58Z,42.805,6.029,13.2955,4.59957,2469.563,2019-5-27T15:01:13Z
2019-05-27T13:04:01Z,42.805,6.029,13.2954,4.59956,2469.61,2019-5-27T15:04:16Z
2019-05-27T13:07:04Z,42.805,6.029,13.2954,4.59956,2469.597,2019-5-27T15:07:19Z
2019-05-27T13:10:07Z,42.805,6.029,13.2957,4.59959,2469.563,2019-5-27T15:10:22Z
2019-05-27T13:13:10Z,42.805,6.029,13.2955,4.59961,2469.61,2019-5-27T15:13:25Z
2019-05-27T13:16:13Z,42.805,6.029,13.2953,4.59958,2469.61,2019-5-27T15:16:28Z
2019-05-27T13:19:16Z,42.805,6.029,13.2953,4.59962,2469.563,2019-5-27T15:19:31Z
2019-05-27T13:22:19Z,42.805,6.029,13.2952,4.59959,2469.61,2019-5-27T15:22:34Z
2019-05-27T13:25:22Z,42.805,6.029,13.2956,4.59958,2469.573,2019-5-27T15:25:37Z
2019-05-27T13:28:25Z,42.805,6.029,13.2953,4.59957,2469.61,2019-5-27T15:28:40Z
2019-05-27T13:31:28Z,42.805,6.029,13.2957,4.59958,2469.573,2019-5-27T15:31:43Z
2019-05-27T13:34:31Z,42.805,6.029,13.2949,4.59958,2469.55,2019-5-27T15:34:46Z
2019-05-27T13:37:34Z,42.805,6.029,13.2953,4.59960,2469.563,2019-5-27T15:37:49Z
2019-05-27T13:40:37Z,42.805,6.029,13.2952,4.59957,2469.573,2019-5-27T15:40:51Z
2019-05-27T13:43:40Z,42.805,6.029,13.2953,4.59958,2469.587,2019-5-27T15:43:54Z
2019-05-27T13:46:43Z,42.805,6.029,13.2952,4.59958,2469.55,2019-5-27T15:46:57Z
2019-05-27T13:49:46Z,42.805,6.029,13.2951,4.59957,2469.55,2019-5-27T15:50:00Z
2019-05-27T13:52:49Z,42.805,6.029,13.2955,4.59958,2469.55,2019-5-27T15:53:03Z
2019-05-27T13:55:52Z,42.805,6.029,13.2957,4.59957,2469.597,2019-5-27T15:56:06Z
2019-05-27T13:58:55Z,42.805,6.029,13.2958,4.59961,2469.55,2019-5-27T15:59:09Z
2019-05-27T14:01:57Z,42.805,6.029,13.2957,4.59959,2469.573,2019-5-27T16:02:12Z
2019-05-27T14:05:00Z,42.805,6.029,13.2956,4.59956,2469.55,2019-5-27T16:05:15Z
2019-05-27T14:08:03Z,42.805,6.029,13.2952,4.59956,2469.597,2019-5-27T16:08:18Z
2019-05-27T14:11:06Z,42.805,6.029,13.2957,4.59960,2469.587,2019-5-27T16:11:21Z
2019-05-27T14:14:09Z,42.805,6.029,13.2953,4.59957,2469.563,2019-5-27T16:14:24Z
2019-05-27T14:17:12Z,42.805,6.029,13.2956,4.59955,2469.587,2019-5-27T16:17:27Z
2019-05-27T14:20:15Z,42.805,6.029,13.2957,4.59958,2469.587,2019-5-27T16:20:30Z
2019-05-27T14:23:18Z,42.805,6.029,13.2955,4.59958,2469.573,2019-5-27T16:23:33Z
2019-05-27T14:26:21Z,42.805,6.029,13.2954,4.59960,2469.573,2019-5-27T16:26:36Z
2019-05-27T14:29:24Z,42.805,6.029,13.2957,4.59955,2469.587,2019-5-27T16:29:39Z
2019-05-27T14:32:27Z,42.805,6.029,13.2955,4.59955,2469.573,2019-5-27T16:32:42Z
2019-05-27T14:35:30Z,42.805,6.029,13.2952,4.59954,2469.587,2019-5-27T16:35:45Z
2019-05-27T14:38:33Z,42.805,6.029,13.2953,4.59962,2469.563,2019-5-27T16:38:48Z
2019-05-27T14:41:36Z,42.805,6.029,13.2954,4.59958,2469.573,2019-5-27T16:41:51Z
2019-05-27T14:44:39Z,42.805,6.029,13.2952,4.59958,2469.573,2019-5-27T16:44:54Z
2019-05-27T14:47:42Z,42.805,6.029,13.2957,4.59956,2469.563,2019-5-27T16:47:56Z
2019-05-27T14:50:45Z,42.805,6.029,13.2953,4.59954,2469.587,2019-5-27T16:50:59Z
2019-05-27T14:53:48Z,42.805,6.029,13.2956,4.59954,2469.573,2019-5-27T16:54:02Z
2019-05-27T14:56:51Z,42.805,6.029,13.2957,4.59959,2469.587,2019-5-27T16:57:05Z
2019-05-27T14:59:54Z,42.805,6.029,13.2957,4.59956,2469.573,2019-5-27T17:00:08Z
2019-05-27T15:02:57Z,42.805,6.029,13.2951,4.59958,2469.587,2019-5-27T17:03:11Z
2019-05-27T15:06:00Z,42.805,6.029,13.2957,4.59956,2469.563,2019-5-27T17:06:14Z
2019-05-27T15:09:02Z,42.805,6.029,13.2957,4.59956,2469.573,2019-5-27T17:09:17Z
2019-05-27T15:12:05Z,42.805,6.029,13.2953,4.59956,2469.597,2019-5-27T17:12:20Z
2019-05-27T15:15:08Z,42.805,6.029,13.2952,4.59957,2469.573,2019-5-27T17:15:23Z
2019-05-27T15:18:11Z,42.805,6.029,13.2953,4.59956,2469.597,2019-5-27T17:18:26Z
2019-05-27T15:21:14Z,42.805,6.029,13.2953,4.59957,2469.587,2019-5-27T17:21:29Z
2019-05-27T15:24:17Z,42.805,6.029,13.2957,4.59955,2469.563,2019-5-27T17:24:32Z
2019-05-27T15:27:20Z,42.805,6.029,13.2952,4.59956,2469.587,2019-5-27T17:27:35Z
2019-05-27T15:30:23Z,42.805,6.029,13.2958,4.59956,2469.587,2019-5-27T17:30:38Z
2019-05-27T15:33:26Z,42.805,6.029,13.2956,4.59954,2469.587,2019-5-27T17:33:41Z
2019-05-27T15:36:29Z,42.805,6.029,13.2957,4.59954,2469.573,2019-5-27T17:36:44Z
2019-05-27T15:39:32Z,42.805,6.029,13.2954,4.59956,2469.573,2019-5-27T17:39:47Z
2019-05-27T15:42:35Z,42.805,6.029,13.2953,4.59958,2469.55,2019-5-27T17:42:50Z
2019-05-27T15:45:38Z,42.805,6.029,13.2953,4.59956,2469.597,2019-5-27T17:45:53Z
2019-05-27T15:48:41Z,42.805,6.029,13.2955,4.59954,2469.563,2019-5-27T17:48:56Z
2019-05-27T15:51:44Z,42.805,6.029,13.2957,4.59954,2469.587,2019-5-27T17:51:59Z
2019-05-27T15:54:47Z,42.805,6.029,13.2952,4.59957,2469.61,2019-5-27T17:55:01Z
2019-05-27T15:57:50Z,42.805,6.029,13.2953,4.59956,2469.61,2019-5-27T17:58:04Z
2019-05-27T16:00:53Z,42.805,6.029,13.2954,4.59955,2469.563,2019-5-27T18:01:07Z
2019-05-27T16:03:56Z,42.805,6.029,13.2952,4.59955,2469.61,2019-5-27T18:04:10Z
2019-05-27T16:06:59Z,42.805,6.029,13.2954,4.59955,2469.587,2019-5-27T18:07:13Z
2019-05-27T16:10:02Z,42.805,6.029,13.2954,4.59955,2469.573,2019-5-27T18:10:16Z
2019-05-27T16:13:04Z,42.805,6.029,13.2957,4.59958,2469.587,2019-5-27T18:13:19Z
2019-05-27T16:16:07Z,42.805,6.029,13.2955,4.59958,2469.55,2019-5-27T18:16:22Z
2019-05-27T16:19:10Z,42.805,6.029,13.2952,4.59954,2469.587,2019-5-27T18:19:25Z
2019-05-27T16:22:13Z,42.805,6.029,13.2955,4.59956,2469.587,2019-5-27T18:22:28Z
2019-05-27T16:25:16Z,42.805,6.029,13.2956,4.59955,2469.61,2019-5-27T18:25:31Z
2019-05-27T16:28:19Z,42.805,6.029,13.2954,4.59956,2469.55,2019-5-27T18:28:34Z
2019-05-27T16:31:22Z,42.805,6.029,13.2958,4.59954,2469.573,2019-5-27T18:31:37Z
2019-05-27T16:34:25Z,42.805,6.029,13.2958,4.59954,2469.587,2019-5-27T18:34:40Z
2019-05-27T16:37:28Z,42.805,6.029,13.2954,4.59956,2469.573,2019-5-27T18:37:43Z
2019-05-27T16:40:31Z,42.805,6.029,13.2955,4.59954,2469.587,2019-5-27T18:40:46Z
2019-05-27T16:43:34Z,42.805,6.029,13.2957,4.59955,2469.563,2019-5-27T18:43:49Z